Kenai, AK

5:16 AM AKST on December 08, 2019 (GMT -0900)
Kenai Municipal

Weather History for PAEN - October, 2019

Change the Weather History Date:

Saturday, October 26, 2019

  Actual Average Record
Temperature  
Mean Temperature 38 °F -  
Max Temperature 46 °F 35 °F 54 °F (2018)
Min Temperature 32 °F 20 °F -11 °F (1966)
Degree Days  
Heating Degree Days 28    
Moisture  
Dew Point 34 °F    
Average Humidity 83    
Maximum Humidity 89    
Minimum Humidity 63    
Precipitation  
Precipitation 0.00 in - - ()
Sea Level Pressure  
Sea Level Pressure 30.51 in    
Wind  
Wind Speed 5 mph (NNE)    
Max Wind Speed 13 mph    
Max Gust Speed -    
Visibility 10 miles    
Events Rain    
Averages and records for this station are not official NWS values.
T = Trace of Precipitation, MM = Missing Value Source: NWS Daily Summary

Daily Weather History Graph

Daily Weather History Graph

Search for Another Location

Airport or City:

Astronomy

Oct. 26, 2019 Rise Set
Actual Time 9:14 AM AKDT 6:22 PM AKDT
Civil Twilight 8:29 AM AKDT 7:07 PM AKDT
Nautical Twilight 7:39 AM AKDT 7:57 PM AKDT
Astronomical Twilight 6:50 AM AKDT 8:45 PM AKDT
Moon 6:35 AM AKDT (10/26) 6:40 PM AKDT (10/26)
Length of Visible Light 10h 38m
Length of Day
9h 08m
Waning Crescent, 3% of the Moon is Illuminated
Oct 26
Waning Crescent
Oct 27
New
Nov 4
First Quarter
Nov 12
Full
Nov 19
Last Quarter

Hourly Weather History & Observations

Time (AKDT) Temp. Windchill Dew Point Humidity Pressure Visibility Wind Dir Wind Speed Gust Speed Precip Events Conditions
1:53 AM 32.0 °F 28.7 °F 27.0 °F 82% 30.53 in 10.0 mi NNE 3.5 mph - N/A   Mostly Cloudy
2:53 AM 33.1 °F - 28.0 °F 82% 30.55 in 10.0 mi Calm Calm - N/A   Overcast
3:53 AM 35.1 °F 32.2 °F 28.9 °F 78% 30.54 in 10.0 mi East 3.5 mph - N/A   Overcast
4:53 AM 34.0 °F 29.8 °F 28.9 °F 82% 30.54 in 10.0 mi NNE 4.6 mph - N/A   Clear
5:53 AM 33.1 °F 28.7 °F 28.0 °F 82% 30.54 in 10.0 mi North 4.6 mph - N/A   Clear
6:53 AM 33.1 °F 28.7 °F 27.0 °F 78% 30.54 in 10.0 mi North 4.6 mph - N/A   Clear
7:53 AM 34.0 °F 28.8 °F 28.0 °F 79% 30.54 in 10.0 mi North 5.8 mph - N/A   Partly Cloudy
8:53 AM 35.6 °F 30.7 °F 30.2 °F 81% 30.53 in 10.0 mi North 5.8 mph - N/A   Clear
10:53 AM 39.0 °F 34.0 °F 35.1 °F 86% 30.56 in 10.0 mi NE 6.9 mph - N/A   Overcast
11:53 AM 39.0 °F 34.8 °F 35.1 °F 86% 30.57 in 10.0 mi North 5.8 mph - 0.00 in Rain Light Rain
1:53 PM 42.1 °F 35.2 °F 37.9 °F 85% 30.55 in 10.0 mi NNE 12.7 mph - 0.00 in   Overcast
2:53 PM 41.0 °F 35.8 °F 37.9 °F 89% 30.53 in 10.0 mi NNE 8.1 mph - N/A   Overcast
3:53 PM 42.1 °F 39.2 °F 37.9 °F 85% 30.52 in 10.0 mi NNE 4.6 mph - N/A   Overcast
4:53 PM 41.0 °F 36.4 °F 37.9 °F 89% 30.50 in 10.0 mi NNE 6.9 mph - 0.00 in Rain Light Rain
5:53 PM 42.1 °F 36.1 °F 39.0 °F 89% 30.48 in 10.0 mi North 10.4 mph - 0.00 in   Overcast
6:53 PM 42.1 °F 36.6 °F 39.0 °F 89% 30.45 in 10.0 mi North 9.2 mph - N/A   Overcast
7:53 PM 42.1 °F 37.7 °F 37.9 °F 85% 30.44 in 10.0 mi North 6.9 mph - N/A   Overcast
8:53 PM 43.0 °F 37.7 °F 37.9 °F 82% 30.43 in 10.0 mi North 9.2 mph - N/A   Overcast
10:53 PM 43.0 °F 38.2 °F 37.0 °F 80% 30.40 in 10.0 mi North 8.1 mph - N/A   Overcast
11:53 PM 46.9 °F - 35.1 °F 63% 30.40 in 10.0 mi ENE 6.9 mph - 0.00 in Rain Light Rain